Year,Month,Day,Hour,Minute,Value (Times are PST for windgust in km/hr)
2016,10,06,00,00,1.60
2016,10,06,00,01,1.60
2016,10,06,00,02,1.60
2016,10,06,00,03,1.60
2016,10,06,00,06,1.60
2016,10,06,00,15,3.20
2016,10,06,00,16,3.20
2016,10,06,00,17,1.60
2016,10,06,00,19,1.60
2016,10,06,00,20,1.60
2016,10,06,00,21,3.20
2016,10,06,00,22,3.20
2016,10,06,00,23,3.20
2016,10,06,00,24,1.60
2016,10,06,00,25,1.60
2016,10,06,00,29,1.60
2016,10,06,00,30,1.60
2016,10,06,00,31,1.60
2016,10,06,00,32,3.20
2016,10,06,00,33,3.20
2016,10,06,00,34,3.20
2016,10,06,00,35,4.80
2016,10,06,00,36,3.20
2016,10,06,00,37,3.20
2016,10,06,00,38,3.20
2016,10,06,00,39,3.20
2016,10,06,00,40,3.20
2016,10,06,00,41,3.20
2016,10,06,00,42,3.20
2016,10,06,00,43,1.60
2016,10,06,00,44,3.20
2016,10,06,00,45,3.20
2016,10,06,00,46,3.20
2016,10,06,00,47,3.20
2016,10,06,00,48,3.20
2016,10,06,00,49,3.20
2016,10,06,00,50,3.20
2016,10,06,00,51,3.20
2016,10,06,00,52,3.20
2016,10,06,00,53,1.60
2016,10,06,00,54,1.60
2016,10,06,00,55,1.60
2016,10,06,00,56,1.60
2016,10,06,00,57,1.60
2016,10,06,00,58,3.20
2016,10,06,00,59,3.20
2016,10,06,01,10,4.80
2016,10,06,01,11,3.20
2016,10,06,01,12,3.20
2016,10,06,01,13,3.20
2016,10,06,01,14,3.20
2016,10,06,01,15,1.60
2016,10,06,01,16,3.20
2016,10,06,01,17,1.60
2016,10,06,01,18,3.20
2016,10,06,01,19,1.60
2016,10,06,01,20,1.60
2016,10,06,01,21,3.20
2016,10,06,01,27,3.20
2016,10,06,01,28,3.20
2016,10,06,01,29,3.20
2016,10,06,01,30,3.20
2016,10,06,01,31,3.20
2016,10,06,01,35,1.60
2016,10,06,01,36,1.60
2016,10,06,01,37,3.20
2016,10,06,01,38,3.20
2016,10,06,01,39,3.20
2016,10,06,01,40,3.20
2016,10,06,01,41,1.60
2016,10,06,01,42,3.20
2016,10,06,01,43,3.20
2016,10,06,01,44,3.20
2016,10,06,01,45,3.20
2016,10,06,01,46,3.20
2016,10,06,01,47,3.20
2016,10,06,01,48,3.20
2016,10,06,01,49,1.60
2016,10,06,01,50,1.60
2016,10,06,01,51,3.20
2016,10,06,01,52,1.60
2016,10,06,01,53,3.20
2016,10,06,01,54,3.20
2016,10,06,01,55,3.20
2016,10,06,01,56,3.20
2016,10,06,01,57,3.20
2016,10,06,01,58,3.20
2016,10,06,01,59,3.20
2016,10,06,02,00,3.20
2016,10,06,02,01,3.20
2016,10,06,02,02,3.20
2016,10,06,02,03,1.60
2016,10,06,02,04,3.20
2016,10,06,02,05,3.20
2016,10,06,02,06,3.20
2016,10,06,02,07,3.20
2016,10,06,02,08,3.20
2016,10,06,02,09,3.20
2016,10,06,02,10,3.20
2016,10,06,02,11,3.20
2016,10,06,02,12,3.20
2016,10,06,02,13,3.20
2016,10,06,02,14,3.20
2016,10,06,02,15,3.20
2016,10,06,02,16,3.20
2016,10,06,02,17,1.60
2016,10,06,02,18,3.20
2016,10,06,02,19,3.20
2016,10,06,02,20,3.20
2016,10,06,02,21,3.20
2016,10,06,02,22,1.60
2016,10,06,02,23,1.60
2016,10,06,02,24,3.20
2016,10,06,02,25,3.20
2016,10,06,02,26,3.20
2016,10,06,02,27,3.20
2016,10,06,02,28,3.20
2016,10,06,02,29,3.20
2016,10,06,02,30,3.20
2016,10,06,02,31,3.20
2016,10,06,02,32,3.20
2016,10,06,02,33,3.20
2016,10,06,02,34,1.60
2016,10,06,02,35,1.60
2016,10,06,02,36,3.20
2016,10,06,02,37,3.20
2016,10,06,02,38,1.60
2016,10,06,02,39,4.80
2016,10,06,02,40,4.80
2016,10,06,02,41,3.20
2016,10,06,02,42,1.60
2016,10,06,02,54,3.20
2016,10,06,02,55,1.60
2016,10,06,02,56,1.60
2016,10,06,02,57,3.20
2016,10,06,02,58,1.60
2016,10,06,02,59,3.20
2016,10,06,03,00,1.60
2016,10,06,03,01,3.20
2016,10,06,03,02,3.20
2016,10,06,03,03,3.20
2016,10,06,03,04,3.20
2016,10,06,03,05,3.20
2016,10,06,03,06,3.20
2016,10,06,03,07,3.20
2016,10,06,03,08,1.60
2016,10,06,03,09,1.60
2016,10,06,03,10,3.20
2016,10,06,03,11,3.20
2016,10,06,03,12,3.20
2016,10,06,03,13,3.20
2016,10,06,03,14,3.20
2016,10,06,03,15,3.20
2016,10,06,03,16,1.60
2016,10,06,03,17,1.60
2016,10,06,03,18,1.60
2016,10,06,03,19,1.60
2016,10,06,03,20,1.60
2016,10,06,03,21,1.60
2016,10,06,03,22,3.20
2016,10,06,03,23,1.60
2016,10,06,03,26,3.20
2016,10,06,03,27,3.20
2016,10,06,03,28,1.60
2016,10,06,03,29,1.60
2016,10,06,03,34,1.60
2016,10,06,03,35,1.60
2016,10,06,03,36,3.20
2016,10,06,03,37,3.20
2016,10,06,03,38,3.20
2016,10,06,03,39,3.20
2016,10,06,03,40,3.20
2016,10,06,03,41,1.60
2016,10,06,03,42,1.60
2016,10,06,03,43,1.60
2016,10,06,04,32,1.60
2016,10,06,04,33,1.60
2016,10,06,04,34,1.60
2016,10,06,04,35,3.20
2016,10,06,04,36,3.20
2016,10,06,04,37,3.20
2016,10,06,04,38,1.60
2016,10,06,04,39,1.60
2016,10,06,04,40,1.60
2016,10,06,04,41,1.60
2016,10,06,04,42,1.60
2016,10,06,04,43,3.20
2016,10,06,04,44,3.20
2016,10,06,04,45,3.20
2016,10,06,04,46,3.20
2016,10,06,04,47,3.20
2016,10,06,04,48,3.20
2016,10,06,04,49,3.20
2016,10,06,04,50,1.60
2016,10,06,04,51,3.20
2016,10,06,04,52,1.60
2016,10,06,04,53,1.60
2016,10,06,04,54,3.20
2016,10,06,04,55,1.60
2016,10,06,04,56,1.60
2016,10,06,04,57,1.60
2016,10,06,04,58,1.60
2016,10,06,04,59,1.60
2016,10,06,05,00,1.60
2016,10,06,05,01,1.60
2016,10,06,05,02,1.60
2016,10,06,05,04,1.60
2016,10,06,05,07,1.60
2016,10,06,05,08,1.60
2016,10,06,05,09,1.60
2016,10,06,05,10,1.60
2016,10,06,05,12,1.60
2016,10,06,05,13,1.60
2016,10,06,05,14,3.20
2016,10,06,05,15,1.60
2016,10,06,05,16,3.20
2016,10,06,05,17,3.20
2016,10,06,05,18,1.60
2016,10,06,05,19,1.60
2016,10,06,05,20,3.20
2016,10,06,05,21,1.60
2016,10,06,05,22,1.60
2016,10,06,05,23,3.20
2016,10,06,05,24,1.60
2016,10,06,05,25,3.20
2016,10,06,05,26,3.20
2016,10,06,05,27,1.60
2016,10,06,05,28,3.20
2016,10,06,05,29,1.60
2016,10,06,05,30,1.60
2016,10,06,05,31,1.60
2016,10,06,05,32,3.20
2016,10,06,05,33,1.60
2016,10,06,05,34,1.60
2016,10,06,05,35,1.60
2016,10,06,05,36,1.60
2016,10,06,05,58,1.60
2016,10,06,05,59,1.60
2016,10,06,06,00,3.20
2016,10,06,06,01,3.20
2016,10,06,06,02,3.20
2016,10,06,06,06,3.20
2016,10,06,06,07,3.20
2016,10,06,06,08,3.20
2016,10,06,06,09,1.60
2016,10,06,06,15,1.60
2016,10,06,06,16,3.20
2016,10,06,06,17,3.20
2016,10,06,06,18,1.60
2016,10,06,06,19,1.60
2016,10,06,06,28,1.60
2016,10,06,10,15,3.20
2016,10,06,10,16,3.20
2016,10,06,10,17,4.80
2016,10,06,10,18,3.20
2016,10,06,10,19,1.60
2016,10,06,10,20,1.60
2016,10,06,10,21,3.20
2016,10,06,10,22,3.20
2016,10,06,10,23,1.60
2016,10,06,10,24,1.60
2016,10,06,10,25,1.60
2016,10,06,10,26,3.20
2016,10,06,10,27,3.20
2016,10,06,10,28,3.20
2016,10,06,10,32,3.20
2016,10,06,10,33,1.60
2016,10,06,10,36,1.60
2016,10,06,10,37,3.20
2016,10,06,10,38,4.80
2016,10,06,10,39,1.60
2016,10,06,10,40,4.80
2016,10,06,10,41,3.20
2016,10,06,10,42,3.20
2016,10,06,10,43,3.20
2016,10,06,10,44,3.20
2016,10,06,10,45,3.20
2016,10,06,10,47,1.60
2016,10,06,10,48,1.60
2016,10,06,10,49,1.60
2016,10,06,10,50,1.60
2016,10,06,10,52,3.20
2016,10,06,10,53,4.80
2016,10,06,10,54,6.40
2016,10,06,10,55,3.20
2016,10,06,10,56,4.80
2016,10,06,10,57,4.80
2016,10,06,10,58,1.60
2016,10,06,10,59,1.60
2016,10,06,11,00,4.80
2016,10,06,11,01,3.20
2016,10,06,11,03,1.60
2016,10,06,11,04,1.60
2016,10,06,11,05,1.60
2016,10,06,11,06,1.60
2016,10,06,11,07,4.80
2016,10,06,11,08,3.20
2016,10,06,11,09,3.20
2016,10,06,11,10,3.20
2016,10,06,11,11,4.80
2016,10,06,11,12,4.80
2016,10,06,11,13,3.20
2016,10,06,11,14,6.40
2016,10,06,11,15,4.80
2016,10,06,11,16,1.60
2016,10,06,11,17,3.20
2016,10,06,11,18,6.40
2016,10,06,11,19,6.40
2016,10,06,11,20,6.40
2016,10,06,11,21,8.10
2016,10,06,11,22,8.10
2016,10,06,11,23,4.80
2016,10,06,11,24,6.40
2016,10,06,11,25,9.60
2016,10,06,11,26,11.30
2016,10,06,11,27,11.30
2016,10,06,11,28,11.30
2016,10,06,11,29,6.40
2016,10,06,11,30,8.10
2016,10,06,11,31,6.40
2016,10,06,11,32,6.40
2016,10,06,11,33,6.40
2016,10,06,11,34,4.80
2016,10,06,11,35,9.60
2016,10,06,11,36,12.90
2016,10,06,11,37,6.40
2016,10,06,11,38,6.40
2016,10,06,11,39,12.90
2016,10,06,11,40,6.40
2016,10,06,11,41,9.60
2016,10,06,11,42,9.60
2016,10,06,11,43,11.30
2016,10,06,11,44,4.80
2016,10,06,11,45,6.40
2016,10,06,11,46,8.10
2016,10,06,11,47,9.60
2016,10,06,11,48,6.40
2016,10,06,11,49,6.40
2016,10,06,11,50,6.40
2016,10,06,11,51,8.10
2016,10,06,11,52,6.40
2016,10,06,11,53,9.60
2016,10,06,11,54,6.40
2016,10,06,11,55,3.20
2016,10,06,11,56,6.40
2016,10,06,11,57,4.80
2016,10,06,11,58,6.40
2016,10,06,11,59,6.40
2016,10,06,12,00,8.10
2016,10,06,12,01,4.80
2016,10,06,12,02,6.40
2016,10,06,12,03,4.80
2016,10,06,12,04,4.80
2016,10,06,12,05,4.80
2016,10,06,12,06,6.40
2016,10,06,12,07,11.30
2016,10,06,12,08,6.40
2016,10,06,12,09,6.40
2016,10,06,12,10,4.80
2016,10,06,12,11,4.80
2016,10,06,12,12,11.30
2016,10,06,12,13,12.90
2016,10,06,12,14,14.50
2016,10,06,12,15,8.10
2016,10,06,12,16,8.10
2016,10,06,12,17,8.10
2016,10,06,12,18,6.40
2016,10,06,12,19,6.40
2016,10,06,12,20,4.80
2016,10,06,12,21,1.60
2016,10,06,12,22,4.80
2016,10,06,12,23,4.80
2016,10,06,12,24,6.40
2016,10,06,12,25,6.40
2016,10,06,12,26,4.80
2016,10,06,12,27,4.80
2016,10,06,12,28,4.80
2016,10,06,12,29,6.40
2016,10,06,12,30,11.30
2016,10,06,12,31,8.10
2016,10,06,12,32,8.10
2016,10,06,12,33,8.10
2016,10,06,12,34,6.40
2016,10,06,12,35,12.90
2016,10,06,12,36,6.40
2016,10,06,12,37,3.20
2016,10,06,12,38,3.20
2016,10,06,12,39,4.80
2016,10,06,12,40,6.40
2016,10,06,12,41,6.40
2016,10,06,12,42,4.80
2016,10,06,12,43,4.80
2016,10,06,12,44,6.40
2016,10,06,12,45,9.60
2016,10,06,12,46,4.80
2016,10,06,12,47,4.80
2016,10,06,12,48,14.50
2016,10,06,12,49,6.40
2016,10,06,12,50,6.40
2016,10,06,12,51,4.80
2016,10,06,12,52,4.80
2016,10,06,12,53,6.40
2016,10,06,12,54,4.80
2016,10,06,12,55,4.80
2016,10,06,12,56,4.80
2016,10,06,12,57,12.90
2016,10,06,12,58,8.10
2016,10,06,12,59,6.40
2016,10,06,13,00,6.40
2016,10,06,13,01,4.80
2016,10,06,13,02,8.10
2016,10,06,13,03,6.40
2016,10,06,13,04,6.40
2016,10,06,13,05,4.80
2016,10,06,13,06,8.10
2016,10,06,13,07,3.20
2016,10,06,13,08,1.60
2016,10,06,13,09,6.40
2016,10,06,13,10,6.40
2016,10,06,13,11,4.80
2016,10,06,13,12,3.20
2016,10,06,13,13,4.80
2016,10,06,13,14,4.80
2016,10,06,13,15,4.80
2016,10,06,13,16,3.20
2016,10,06,13,17,6.40
2016,10,06,13,18,4.80
2016,10,06,13,19,6.40
2016,10,06,13,20,6.40
2016,10,06,13,21,3.20
2016,10,06,13,22,3.20
2016,10,06,13,23,1.60
2016,10,06,13,24,3.20
2016,10,06,13,25,4.80
2016,10,06,13,26,3.20
2016,10,06,13,27,3.20
2016,10,06,13,28,6.40
2016,10,06,13,29,3.20
2016,10,06,13,30,1.60
2016,10,06,13,31,1.60
2016,10,06,13,32,3.20
2016,10,06,13,33,3.20
2016,10,06,13,34,6.40
2016,10,06,13,35,9.60
2016,10,06,13,36,3.20
2016,10,06,13,37,3.20
2016,10,06,13,38,3.20
2016,10,06,13,39,6.40
2016,10,06,13,40,8.10
2016,10,06,13,41,16.10
2016,10,06,13,42,14.50
2016,10,06,13,43,9.60
2016,10,06,13,44,11.30
2016,10,06,13,45,8.10
2016,10,06,13,46,6.40
2016,10,06,13,47,4.80
2016,10,06,13,48,3.20
2016,10,06,13,49,9.60
2016,10,06,13,50,9.60
2016,10,06,13,51,8.10
2016,10,06,13,52,8.10
2016,10,06,13,53,8.10
2016,10,06,13,54,9.60
2016,10,06,13,55,6.40
2016,10,06,13,56,6.40
2016,10,06,13,57,6.40
2016,10,06,13,58,4.80
2016,10,06,13,59,8.10
2016,10,06,14,00,8.10
2016,10,06,14,01,4.80
2016,10,06,14,02,3.20
2016,10,06,14,03,3.20
2016,10,06,14,04,6.40
2016,10,06,14,05,3.20
2016,10,06,14,06,12.90
2016,10,06,14,07,6.40
2016,10,06,14,08,6.40
2016,10,06,14,09,8.10
2016,10,06,14,10,8.10
2016,10,06,14,11,6.40
2016,10,06,14,12,1.60
2016,10,06,14,13,3.20
2016,10,06,14,14,4.80
2016,10,06,14,15,8.10
2016,10,06,14,16,8.10
2016,10,06,14,17,4.80
2016,10,06,14,18,3.20
2016,10,06,14,19,3.20
2016,10,06,14,20,3.20
2016,10,06,14,21,4.80
2016,10,06,14,22,8.10
2016,10,06,14,23,8.10
2016,10,06,14,24,3.20
2016,10,06,14,25,1.60
2016,10,06,14,26,6.40
2016,10,06,14,27,6.40
2016,10,06,14,28,3.20
2016,10,06,14,29,4.80
2016,10,06,14,30,3.20
2016,10,06,14,31,4.80
2016,10,06,14,32,1.60
2016,10,06,14,34,4.80
2016,10,06,14,35,8.10
2016,10,06,14,36,4.80
2016,10,06,14,37,8.10
2016,10,06,14,38,8.10
2016,10,06,14,39,3.20
2016,10,06,14,40,6.40
2016,10,06,14,41,6.40
2016,10,06,14,42,6.40
2016,10,06,14,43,3.20
2016,10,06,14,44,4.80
2016,10,06,14,45,4.80
2016,10,06,14,46,4.80
2016,10,06,14,47,4.80
2016,10,06,14,48,8.10
2016,10,06,14,49,3.20
2016,10,06,14,50,3.20
2016,10,06,14,51,6.40
2016,10,06,14,52,3.20
2016,10,06,14,53,12.90
2016,10,06,14,54,12.90
2016,10,06,14,55,3.20
2016,10,06,14,56,3.20
2016,10,06,14,57,14.50
2016,10,06,14,58,8.10
2016,10,06,14,59,4.80
2016,10,06,15,00,1.60
2016,10,06,15,01,4.80
2016,10,06,15,02,3.20
2016,10,06,15,03,1.60
2016,10,06,15,04,3.20
2016,10,06,15,05,3.20
2016,10,06,15,06,3.20
2016,10,06,15,08,8.10
2016,10,06,15,09,6.40
2016,10,06,15,10,8.10
2016,10,06,15,11,8.10
2016,10,06,15,12,4.80
2016,10,06,15,13,3.20
2016,10,06,15,14,8.10
2016,10,06,15,15,6.40
2016,10,06,15,16,6.40
2016,10,06,15,17,4.80
2016,10,06,15,18,4.80
2016,10,06,15,19,3.20
2016,10,06,15,20,4.80
2016,10,06,15,21,4.80
2016,10,06,15,22,8.10
2016,10,06,15,23,8.10
2016,10,06,15,24,4.80
2016,10,06,15,25,4.80
2016,10,06,15,26,11.30
2016,10,06,15,27,11.30
2016,10,06,15,28,8.10
2016,10,06,15,29,17.70
2016,10,06,15,30,17.70
2016,10,06,15,31,14.50
2016,10,06,15,32,6.40
2016,10,06,15,33,9.60
2016,10,06,15,34,8.10
2016,10,06,15,35,4.80
2016,10,06,15,36,4.80
2016,10,06,15,37,1.60
2016,10,06,15,38,9.60
2016,10,06,15,39,11.30
2016,10,06,15,40,8.10
2016,10,06,15,41,8.10
2016,10,06,15,42,4.80
2016,10,06,15,43,6.40
2016,10,06,15,44,4.80
2016,10,06,15,45,3.20
2016,10,06,15,46,1.60
2016,10,06,15,47,4.80
2016,10,06,15,48,1.60
2016,10,06,15,49,8.10
2016,10,06,15,50,6.40
2016,10,06,15,51,11.30
2016,10,06,15,52,8.10
2016,10,06,15,53,12.90
2016,10,06,15,54,9.60
2016,10,06,15,55,3.20
2016,10,06,15,56,8.10
2016,10,06,15,57,9.60
2016,10,06,15,58,9.60
2016,10,06,15,59,3.20
2016,10,06,16,00,1.60
2016,10,06,16,01,3.20
2016,10,06,16,02,3.20
2016,10,06,16,03,3.20
2016,10,06,16,04,8.10
2016,10,06,16,05,3.20
2016,10,06,16,06,3.20
2016,10,06,16,07,3.20
2016,10,06,16,08,6.40
2016,10,06,16,09,4.80
2016,10,06,16,10,1.60
2016,10,06,16,11,3.20
2016,10,06,16,12,3.20
2016,10,06,16,13,3.20
2016,10,06,16,14,4.80
2016,10,06,16,15,8.10
2016,10,06,16,16,6.40
2016,10,06,16,17,14.50
2016,10,06,16,18,4.80
2016,10,06,16,19,9.60
2016,10,06,16,20,9.60
2016,10,06,16,21,8.10
2016,10,06,16,22,8.10
2016,10,06,16,23,12.90
2016,10,06,16,24,11.30
2016,10,06,16,25,6.40
2016,10,06,16,26,6.40
2016,10,06,16,27,14.50
2016,10,06,16,28,8.10
2016,10,06,16,29,8.10
2016,10,06,16,30,8.10
2016,10,06,16,31,16.10
2016,10,06,16,32,11.30
2016,10,06,16,33,8.10
2016,10,06,16,34,8.10
2016,10,06,16,35,14.50
2016,10,06,16,36,12.90
2016,10,06,16,37,11.30
2016,10,06,16,38,3.20
2016,10,06,16,39,9.60
2016,10,06,16,40,8.10
2016,10,06,16,41,4.80
2016,10,06,16,42,9.60
2016,10,06,16,43,11.30
2016,10,06,16,44,19.30
2016,10,06,16,45,9.60
2016,10,06,16,46,14.50
2016,10,06,16,47,16.10
2016,10,06,16,48,11.30
2016,10,06,16,49,9.60
2016,10,06,16,50,11.30
2016,10,06,16,51,4.80
2016,10,06,16,52,3.20
2016,10,06,16,53,14.50
2016,10,06,16,54,12.90
2016,10,06,16,55,12.90
2016,10,06,16,56,12.90
2016,10,06,16,57,12.90
2016,10,06,16,58,8.10
2016,10,06,16,59,11.30
2016,10,06,17,00,9.60
2016,10,06,17,01,9.60
2016,10,06,17,02,9.60
2016,10,06,17,03,16.10
2016,10,06,17,04,14.50
2016,10,06,17,05,17.70
2016,10,06,17,06,8.10
2016,10,06,17,07,17.70
2016,10,06,17,08,17.70
2016,10,06,17,09,19.30
2016,10,06,17,10,16.10
2016,10,06,17,11,22.50
2016,10,06,17,12,12.90
2016,10,06,17,13,20.90
2016,10,06,17,14,16.10
2016,10,06,17,15,8.10
2016,10,06,17,16,9.60
2016,10,06,17,17,16.10
2016,10,06,17,18,37.00
2016,10,06,17,19,24.20
2016,10,06,17,20,6.40
2016,10,06,17,21,8.10
2016,10,06,17,22,14.50
2016,10,06,17,23,14.50
2016,10,06,17,24,8.10
2016,10,06,17,25,27.40
2016,10,06,17,26,16.10
2016,10,06,17,27,20.90
2016,10,06,17,28,20.90
2016,10,06,17,29,11.30
2016,10,06,17,30,17.70
2016,10,06,17,31,27.40
2016,10,06,17,32,17.70
2016,10,06,17,33,24.20
2016,10,06,17,34,30.60
2016,10,06,17,35,12.90
2016,10,06,17,36,19.30
2016,10,06,17,37,19.30
2016,10,06,17,38,19.30
2016,10,06,17,39,14.50
2016,10,06,17,40,12.90
2016,10,06,17,41,27.40
2016,10,06,17,42,12.90
2016,10,06,17,43,24.20
2016,10,06,17,44,14.50
2016,10,06,17,45,12.90
2016,10,06,17,46,30.60
2016,10,06,17,47,20.90
2016,10,06,17,48,20.90
2016,10,06,17,49,19.30
2016,10,06,17,50,17.70
2016,10,06,17,51,17.70
2016,10,06,17,52,11.30
2016,10,06,17,53,22.50
2016,10,06,17,54,24.20
2016,10,06,17,55,24.20
2016,10,06,17,56,20.90
2016,10,06,17,57,19.30
2016,10,06,17,58,11.30
2016,10,06,17,59,17.70
2016,10,06,18,00,25.70
2016,10,06,18,01,20.90
2016,10,06,18,02,17.70
2016,10,06,18,03,22.50
2016,10,06,18,04,16.10
2016,10,06,18,05,6.40
2016,10,06,18,06,19.30
2016,10,06,18,07,11.30
2016,10,06,18,08,6.40
2016,10,06,18,09,17.70
2016,10,06,18,10,9.60
2016,10,06,18,11,12.90
2016,10,06,18,12,25.70
2016,10,06,18,13,16.10
2016,10,06,18,14,19.30
2016,10,06,18,15,35.40
2016,10,06,18,16,17.70
2016,10,06,18,17,19.30
2016,10,06,18,18,27.40
2016,10,06,18,19,22.50
2016,10,06,18,20,17.70
2016,10,06,18,21,12.90
2016,10,06,18,22,25.70
2016,10,06,18,23,9.60
2016,10,06,18,24,22.50
2016,10,06,18,25,16.10
2016,10,06,18,26,24.20
2016,10,06,18,27,19.30
2016,10,06,18,28,9.60
2016,10,06,18,29,6.40
2016,10,06,18,30,19.30
2016,10,06,18,31,25.70
2016,10,06,18,32,33.80
2016,10,06,18,33,27.40
2016,10,06,18,34,25.70
2016,10,06,18,35,12.90
2016,10,06,18,36,25.70
2016,10,06,18,37,27.40
2016,10,06,18,38,14.50
2016,10,06,18,39,8.10
2016,10,06,18,40,19.30
2016,10,06,18,41,16.10
2016,10,06,18,42,12.90
2016,10,06,18,43,25.70
2016,10,06,18,44,27.40
2016,10,06,18,45,12.90
2016,10,06,18,46,19.30
2016,10,06,18,47,14.50
2016,10,06,18,48,14.50
2016,10,06,18,49,40.20
2016,10,06,18,50,19.30
2016,10,06,18,51,4.80
2016,10,06,18,52,16.10
2016,10,06,18,53,12.90
2016,10,06,18,54,14.50
2016,10,06,18,55,4.80
2016,10,06,18,56,29.00
2016,10,06,18,57,12.90
2016,10,06,18,58,16.10
2016,10,06,18,59,19.30
2016,10,06,19,00,14.50
2016,10,06,19,01,19.30
2016,10,06,19,02,11.30
2016,10,06,19,03,17.70
2016,10,06,19,04,20.90
2016,10,06,19,05,12.90
2016,10,06,19,06,14.50
2016,10,06,19,07,12.90
2016,10,06,19,08,6.40
2016,10,06,19,09,3.20
2016,10,06,19,10,19.30
2016,10,06,19,11,17.70
2016,10,06,19,12,12.90
2016,10,06,19,13,9.60
2016,10,06,19,14,4.80
2016,10,06,19,15,9.60
2016,10,06,19,16,11.30
2016,10,06,19,17,12.90
2016,10,06,19,18,11.30
2016,10,06,19,19,16.10
2016,10,06,19,20,14.50
2016,10,06,19,21,8.10
2016,10,06,19,22,6.40
2016,10,06,19,23,4.80
2016,10,06,19,24,12.90
2016,10,06,19,25,12.90
2016,10,06,19,26,12.90
2016,10,06,19,27,20.90
2016,10,06,19,28,14.50
2016,10,06,19,29,14.50
2016,10,06,19,30,12.90
2016,10,06,19,31,20.90
2016,10,06,19,32,17.70
2016,10,06,19,33,14.50
2016,10,06,19,34,9.60
2016,10,06,19,35,20.90
2016,10,06,19,36,20.90
2016,10,06,19,37,11.30
2016,10,06,19,38,12.90
2016,10,06,19,39,29.00
2016,10,06,19,40,29.00
2016,10,06,19,41,24.20
2016,10,06,19,42,9.60
2016,10,06,19,43,22.50
2016,10,06,19,44,17.70
2016,10,06,19,45,17.70
2016,10,06,19,46,19.30
2016,10,06,19,47,16.10
2016,10,06,19,48,11.30
2016,10,06,19,49,9.60
2016,10,06,19,50,19.30
2016,10,06,19,51,8.10
2016,10,06,19,52,8.10
2016,10,06,19,53,4.80
2016,10,06,19,54,11.30
2016,10,06,19,55,16.10
2016,10,06,19,56,14.50
2016,10,06,19,57,12.90
2016,10,06,19,58,14.50
2016,10,06,19,59,12.90
2016,10,06,20,00,9.60
2016,10,06,20,01,16.10
2016,10,06,20,02,32.20
2016,10,06,20,03,16.10
2016,10,06,20,04,19.30
2016,10,06,20,05,24.20
2016,10,06,20,06,16.10
2016,10,06,20,07,20.90
2016,10,06,20,08,22.50
2016,10,06,20,09,20.90
2016,10,06,20,10,24.20
2016,10,06,20,11,24.20
2016,10,06,20,12,20.90
2016,10,06,20,13,32.20
2016,10,06,20,14,27.40
2016,10,06,20,15,25.70
2016,10,06,20,16,17.70
2016,10,06,20,17,33.80
2016,10,06,20,18,33.80
2016,10,06,20,19,25.70
2016,10,06,20,20,19.30
2016,10,06,20,21,16.10
2016,10,06,20,22,37.00
2016,10,06,20,23,30.60
2016,10,06,20,24,30.60
2016,10,06,20,25,19.30
2016,10,06,20,26,16.10
2016,10,06,20,27,20.90
2016,10,06,20,28,17.70
2016,10,06,20,29,29.00
2016,10,06,20,30,33.80
2016,10,06,20,31,17.70
2016,10,06,20,32,16.10
2016,10,06,20,33,19.30
2016,10,06,20,34,27.40
2016,10,06,20,35,25.70
2016,10,06,20,36,14.50
2016,10,06,20,37,17.70
2016,10,06,20,38,16.10
2016,10,06,20,39,9.60
2016,10,06,20,40,25.70
2016,10,06,20,41,22.50
2016,10,06,20,42,17.70
2016,10,06,20,43,22.50
2016,10,06,20,44,29.00
2016,10,06,20,45,20.90
2016,10,06,20,46,19.30
2016,10,06,20,47,17.70
2016,10,06,20,48,20.90
2016,10,06,20,49,14.50
2016,10,06,20,50,19.30
2016,10,06,20,51,30.60
2016,10,06,20,52,24.20
2016,10,06,20,53,12.90
2016,10,06,20,54,17.70
2016,10,06,20,55,19.30
2016,10,06,20,56,17.70
2016,10,06,20,57,16.10
2016,10,06,20,58,25.70
2016,10,06,20,59,16.10
2016,10,06,21,00,12.90
2016,10,06,21,01,16.10
2016,10,06,21,02,17.70
2016,10,06,21,03,12.90
2016,10,06,21,04,6.40
2016,10,06,21,05,17.70
2016,10,06,21,06,12.90
2016,10,06,21,07,11.30
2016,10,06,21,08,9.60
2016,10,06,21,09,17.70
2016,10,06,21,10,12.90
2016,10,06,21,11,9.60
2016,10,06,21,12,20.90
2016,10,06,21,13,22.50
2016,10,06,21,14,19.30
2016,10,06,21,15,16.10
2016,10,06,21,16,22.50
2016,10,06,21,17,17.70
2016,10,06,21,18,12.90
2016,10,06,21,19,12.90
2016,10,06,21,20,6.40
2016,10,06,21,21,12.90
2016,10,06,21,22,17.70
2016,10,06,21,23,20.90
2016,10,06,21,24,16.10
2016,10,06,21,25,6.40
2016,10,06,21,26,16.10
2016,10,06,21,27,8.10
2016,10,06,21,28,14.50
2016,10,06,21,29,9.60
2016,10,06,21,30,16.10
2016,10,06,21,31,14.50
2016,10,06,21,32,14.50
2016,10,06,21,33,14.50
2016,10,06,21,34,17.70
2016,10,06,21,35,25.70
2016,10,06,21,36,9.60
2016,10,06,21,37,19.30
2016,10,06,21,38,17.70
2016,10,06,21,39,11.30
2016,10,06,21,40,14.50
2016,10,06,21,41,22.50
2016,10,06,21,42,9.60
2016,10,06,21,43,27.40
2016,10,06,21,44,16.10
2016,10,06,21,45,14.50
2016,10,06,21,46,12.90
2016,10,06,21,47,17.70
2016,10,06,21,48,11.30
2016,10,06,21,49,27.40
2016,10,06,21,50,16.10
2016,10,06,21,51,27.40
2016,10,06,21,52,9.60
2016,10,06,21,53,14.50
2016,10,06,21,54,24.20
2016,10,06,21,55,17.70
2016,10,06,21,56,17.70
2016,10,06,21,57,17.70
2016,10,06,21,58,25.70
2016,10,06,21,59,16.10
2016,10,06,22,00,6.40
2016,10,06,22,01,17.70
2016,10,06,22,02,19.30
2016,10,06,22,03,14.50
2016,10,06,22,04,14.50
2016,10,06,22,05,20.90
2016,10,06,22,06,11.30
2016,10,06,22,07,12.90
2016,10,06,22,08,11.30
2016,10,06,22,09,12.90
2016,10,06,22,10,22.50
2016,10,06,22,11,12.90
2016,10,06,22,12,8.10
2016,10,06,22,13,8.10
2016,10,06,22,14,20.90
2016,10,06,22,15,17.70
2016,10,06,22,16,17.70
2016,10,06,22,17,24.20
2016,10,06,22,18,14.50
2016,10,06,22,19,6.40
2016,10,06,22,20,14.50
2016,10,06,22,21,17.70
2016,10,06,22,22,16.10
2016,10,06,22,23,11.30
2016,10,06,22,24,11.30
2016,10,06,22,25,12.90
2016,10,06,22,26,6.40
2016,10,06,22,27,14.50
2016,10,06,22,28,14.50
2016,10,06,22,29,19.30
2016,10,06,22,30,9.60
2016,10,06,22,31,9.60
2016,10,06,22,32,14.50
2016,10,06,22,33,16.10
2016,10,06,22,34,22.50
2016,10,06,22,35,22.50
2016,10,06,22,36,25.70
2016,10,06,22,37,22.50
2016,10,06,22,38,9.60
2016,10,06,22,39,11.30
2016,10,06,22,40,9.60
2016,10,06,22,41,19.30
2016,10,06,22,42,20.90
2016,10,06,22,43,11.30
2016,10,06,22,44,16.10
2016,10,06,22,45,12.90
2016,10,06,22,46,14.50
2016,10,06,22,47,14.50
2016,10,06,22,48,4.80
2016,10,06,22,49,20.90
2016,10,06,22,50,12.90
2016,10,06,22,51,20.90
2016,10,06,22,52,19.30
2016,10,06,22,53,9.60
2016,10,06,22,54,6.40
2016,10,06,22,55,3.20
2016,10,06,22,56,9.60
2016,10,06,22,57,12.90
2016,10,06,22,58,17.70
2016,10,06,22,59,12.90
2016,10,06,23,00,11.30
2016,10,06,23,01,14.50
2016,10,06,23,02,4.80
2016,10,06,23,03,11.30
2016,10,06,23,04,19.30
2016,10,06,23,05,12.90
2016,10,06,23,06,9.60
2016,10,06,23,07,6.40
2016,10,06,23,08,14.50
2016,10,06,23,09,11.30
2016,10,06,23,10,8.10
2016,10,06,23,11,19.30
2016,10,06,23,12,11.30
2016,10,06,23,13,4.80
2016,10,06,23,14,12.90
2016,10,06,23,15,11.30
2016,10,06,23,16,14.50
2016,10,06,23,17,11.30
2016,10,06,23,18,8.10
2016,10,06,23,19,20.90
2016,10,06,23,20,14.50
2016,10,06,23,21,9.60
2016,10,06,23,22,17.70
2016,10,06,23,23,12.90
2016,10,06,23,24,19.30
2016,10,06,23,25,14.50
2016,10,06,23,26,16.10
2016,10,06,23,27,12.90
2016,10,06,23,28,14.50
2016,10,06,23,29,8.10
2016,10,06,23,30,14.50
2016,10,06,23,31,19.30
2016,10,06,23,32,16.10
2016,10,06,23,33,14.50
2016,10,06,23,34,14.50
2016,10,06,23,35,8.10
2016,10,06,23,36,11.30
2016,10,06,23,37,6.40
2016,10,06,23,38,6.40
2016,10,06,23,39,16.10
2016,10,06,23,40,6.40
2016,10,06,23,41,6.40
2016,10,06,23,42,4.80
2016,10,06,23,43,9.60
2016,10,06,23,44,9.60
2016,10,06,23,45,6.40
2016,10,06,23,46,17.70
2016,10,06,23,47,14.50
2016,10,06,23,48,11.30
2016,10,06,23,49,12.90
2016,10,06,23,50,19.30
2016,10,06,23,51,11.30
2016,10,06,23,52,8.10
2016,10,06,23,53,16.10
2016,10,06,23,54,12.90
2016,10,06,23,55,6.40
2016,10,06,23,56,14.50
2016,10,06,23,57,6.40
2016,10,06,23,58,6.40
2016,10,06,23,59,19.30
